TimeEST,TemperatureF,Dew PointF,Humidity,Sea Level PressureIn,VisibilityMPH,Wind Direction,Wind SpeedMPH,Gust SpeedMPH,PrecipitationIn,Events,Conditions,WindDirDegrees,DateUTC
12:53 AM,73.9,64.0,71,30.01,10.0,East,12.7,-,N/A,,Mostly Cloudy,90,2012-12-06 05:53:00
1:53 AM,73.0,63.0,71,30.00,10.0,ENE,5.8,-,N/A,,Mostly Cloudy,70,2012-12-06 06:53:00
2:53 AM,73.9,64.0,71,29.99,10.0,ENE,5.8,-,N/A,,Mostly Cloudy,70,2012-12-06 07:53:00
3:53 AM,73.9,64.9,73,29.97,10.0,ENE,5.8,-,N/A,,Scattered Clouds,70,2012-12-06 08:53:00
4:53 AM,73.9,64.0,71,29.96,10.0,East,10.4,-,N/A,,Mostly Cloudy,80,2012-12-06 09:53:00
5:53 AM,73.0,64.9,76,29.96,10.0,East,6.9,-,N/A,,Mostly Cloudy,80,2012-12-06 10:53:00
6:53 AM,73.0,66.0,79,29.97,10.0,East,6.9,-,0.00,Rain,Light Rain,80,2012-12-06 11:53:00
7:53 AM,73.9,66.9,79,29.99,10.0,East,5.8,-,0.00,,Mostly Cloudy,80,2012-12-06 12:53:00
8:53 AM,75.9,66.9,74,30.01,10.0,East,6.9,-,N/A,,Mostly Cloudy,90,2012-12-06 13:53:00
9:53 AM,77.0,66.0,69,30.01,10.0,East,8.1,-,N/A,,Mostly Cloudy,80,2012-12-06 14:53:00
10:53 AM,77.0,66.0,69,30.00,10.0,East,10.4,-,N/A,,Mostly Cloudy,90,2012-12-06 15:53:00
11:53 AM,78.1,66.0,66,29.97,10.0,East,10.4,-,N/A,,Mostly Cloudy,90,2012-12-06 16:53:00
12:53 PM,79.0,66.0,64,29.94,10.0,East,12.7,-,N/A,,Mostly Cloudy,100,2012-12-06 17:53:00
1:53 PM,79.0,63.0,58,29.92,10.0,East,10.4,-,N/A,,Scattered Clouds,80,2012-12-06 18:53:00
2:53 PM,78.1,66.0,66,29.91,10.0,East,10.4,-,N/A,,Scattered Clouds,100,2012-12-06 19:53:00
3:53 PM,79.0,61.0,54,29.91,10.0,ESE,10.4,-,N/A,,Scattered Clouds,120,2012-12-06 20:53:00
4:53 PM,75.9,63.0,64,29.92,10.0,East,9.2,-,N/A,,Mostly Cloudy,90,2012-12-06 21:53:00
5:53 PM,75.0,64.0,69,29.94,10.0,ESE,5.8,-,N/A,,Mostly Cloudy,120,2012-12-06 22:53:00
6:53 PM,75.0,64.0,69,29.94,10.0,East,8.1,-,N/A,,Scattered Clouds,90,2012-12-06 23:53:00
7:53 PM,71.1,64.9,81,29.95,10.0,NW,4.6,-,N/A,,Scattered Clouds,320,2012-12-07 00:53:00
8:04 PM,71.6,64.4,78,29.96,10.0,WSW,4.6,-,0.00,Rain,Light Rain,250,2012-12-07 01:04:00
8:39 PM,71.6,68.0,88,29.96,10.0,Calm,Calm,-,0.05,,Mostly Cloudy,0,2012-12-07 01:39:00
8:53 PM,72.0,68.0,87,29.95,10.0,Calm,Calm,-,0.05,,Mostly Cloudy,0,2012-12-07 01:53:00
9:53 PM,71.1,68.0,90,29.95,10.0,Calm,Calm,-,N/A,,Scattered Clouds,0,2012-12-07 02:53:00
10:53 PM,69.1,66.9,93,29.96,10.0,Calm,Calm,-,N/A,,Scattered Clouds,0,2012-12-07 03:53:00
11:53 PM,71.1,64.0,78,29.95,10.0,SE,9.2,-,N/A,,Mostly Cloudy,130,2012-12-07 04:53:00